Regional Weather Roundup
Issued by NWS Upton, NY

Current Version | Previous Version | Graphics & Text | Print | Product List | Glossary Off
Versions: 1 2 3 4 5 6 7 8 9 10 11 12 13 14 15 16 17 18 19 20 21 22 23 24 25 26 27 28 29 30 31 32 33 34 35 36 37 38 39 40 41 42 43 44 45 46 47 48 49 50

000
ASUS41 KOKX 301418
RWROKX

REGIONAL WEATHER ROUNDUP
NATIONAL WEATHER SERVICE NEW YORK NY
1000 AM EDT TUE JUN 30 2015

NOTE: "FAIR" INDICATES FEW OR NO CLOUDS BELOW 12,000 FEET WITH NO
SIGNIFICANT WEATHER AND/OR OBSTRUCTIONS TO VISIBILITY.

NYZ071-072-176-178-NJZ106-104-301500-
NEW YORK CITY METRO AREA


CITY           SKY/WX    TMP DP  RH WIND       PRES   REMARKS
CENTRAL PARK   MOSUNNY   77  57  50 VRB3      30.00S
LAGUARDIA APRT MOSUNNY   79  56  45 S12       29.97S
KENNEDY INTL   MOSUNNY   76  66  71 S9        29.99S
NEWARK/LIBERTY PTSUNNY   77  58  51 S10       29.96F
BRNX BOT. GARD   N/A     77  57  50 S14       29.97F
TETERBORO      MOSUNNY   78  56  46 S12       29.96S
$$

NYZ177-179-078>081-301500-
LONG ISLAND NEW YORK

CITY           SKY/WX    TMP DP  RH WIND       PRES   REMARKS
FARMINGDALE    SUNNY     77  63  61 SW12      30.00R
ISLIP          MOSUNNY   77  62  59 S8        29.98S
SHIRLEY        SUNNY     76  63  64 SW10      30.00S
WESTHAMPTON    SUNNY     76  64  66 SW9       30.01F
MONTAUK POINT    N/A     78  65  63 VRB3      30.01S
$$

NYZ052-065-067-301500-
HUDSON VALLEY

CITY           SKY/WX    TMP DP  RH WIND       PRES   REMARKS
WHITE PLAINS   MOSUNNY   76  59  55 S6        29.98S
NEWBURGH       PTSUNNY   68  63  83 E7        30.00S
MONTGOMERY     CLOUDY    68  62  81 N5        29.98F
POUGHKEEPSIE   CLOUDY    69  61  75 CALM      29.98F
ALBANY         CLOUDY    69  59  70 CALM      29.98F
$$

NJZ001-105-106-008-010-013-015-019>022-104-301500-
NEW JERSEY

CITY           SKY/WX    TMP DP  RH WIND       PRES   REMARKS
NEWARK/LIBERTY PTSUNNY   77  58  51 S10       29.96F
TETERBORO      MOSUNNY   78  56  46 S12       29.96S
CALDWELL       PTSUNNY   73  61  65 CALM      29.97F
MORRISTOWN     PTSUNNY   77  66  69 CALM      29.97F
SOMERVILLE     MOSUNNY   73  62  68 S6        29.94F
SUSSEX         LGT RAIN  67  61  81 NE6       29.96F
ANDOVER          N/A     70  63  78 CALM      29.96F
TRENTON        MOSUNNY   76  62  62 S10       29.95F
MILLVILLE      PTSUNNY   78  68  71 S9G17     29.96F
ATLANTIC CITY  MOSUNNY   78  66  66 S12       29.98S
WRIGHTSTOWN    MOSUNNY   77  64  63 S8        29.94F
TOMS RIVER     MOSUNNY   79  61  53 S14G20    29.98S
BELMAR         SUNNY     79  57  47 S12G17    29.98S
$$

PAZ047>061-062-071-301500-
EASTERN PENNSYLVANIA

CITY           SKY/WX    TMP DP  RH WIND       PRES   REMARKS
PHILADELPHIA   PTSUNNY   80  65  59 S17G25    29.94F
ALLENTOWN      CLOUDY    72  62  71 S6        29.94S
SCRANTON       CLOUDY    67  61  81 VRB6      29.92F
$$

CTZ002-004>006-009-010-012-RIZ004-006-007-MAZ004-011-015-301500-
SOUTHERN NEW ENGLAND
 IN CT

CITY           SKY/WX    TMP DP  RH WIND       PRES   REMARKS
BRADLEY INTL   MOSUNNY   72  58  61 VRB3      29.99F
HARTFORD       SUNNY     73  61  65 MISG      29.99F
DANBURY        MOSUNNY   74  58  57 W7        30.00F
WTRBRY/OXFORD  MOSUNNY   73  61  64 CALM      30.03S
BRIDGEPORT     SUNNY     75  62  64 SW6       29.99S
MERIDEN        SUNNY     74  61  63 VRB3      29.98F
NEW HAVEN      MOSUNNY   75  63  66 S6        29.98F
CHESTER        FAIR      75  61  60 SW3       30.00F
GROTON         SUNNY     72  65  78 S8        29.99S
WILLIMANTIC    SUNNY     72  60  66 CALM      30.00F

 IN RI

CITY           SKY/WX    TMP DP  RH WIND       PRES   REMARKS
PROVIDENCE     MOSUNNY   75  63  66 W5        30.00F
BLOCK ISLAND   SUNNY     73  63  68 SW10      30.02R
WESTERLY       SUNNY     74  63  68 SW6       30.01S

 IN MA

CITY           SKY/WX    TMP DP  RH WIND       PRES   REMARKS
BOSTON         MOSUNNY   71  62  73 SE6       29.99F
WORCESTER      SUNNY     71  56  58 VRB3      30.02S
WESTFIELD      SUNNY     71  58  63 CALM      30.00F
PROVINCETOWN   SUNNY     73  16  11 SW7       30.00F
NANTUCKET      SUNNY     70  64  81 S10       30.02F
$$

ANZ330-335-338-340-345-350-353-355-301500-
COASTAL MARINE OBSERVATIONS


STATION/POSITION TIME  SKY/WX   TEMP    WIND        PRES    VSBY  WAVE
                                AIR SEA DIR/SP/G                  HT/PER
                 (UTC)          (F)     (DEG/KT/KT) (MB)    (MI)  (FT/S)
NY HARB ENTRANCE 1350            69 69  180/ 10/ 10 1015.2          2/ 8
4S FIRE IS       1303               66                N/A           3/ 7
20S FIRE ISLAND  1350            68 67  180/ 10/ 12 1015.5          3/ 8
GREAT SOUTH BAY  1300            69 72  220/  6/  8   N/A
23SW MTP         1350            67 65  210/  6/  8 1015.9          3/ 8
HUDSON CANYON    NOT AVBL
KINGS POINT      1300            73 64  190/  7/  7 1014.5
CENTRAL LI SOUND NOT AVBL
EASTERN LI SOUND 1300            71      CALM  /  2   N/A
ROBBINS REEF     1300            70     170/  9/  9 1014.0
$$


>>>>>>>>>>>>>>>>>>>>>>>>>>>> KEY <<<<<<<<<<<<<<<<<<<<<<<<<<<
>                                                          <
>     SKY/WX - SKY CONDITION/PRESENT WEATHER               <
>     TMP    - TEMPERATURE IN FAHRENHEIT                   <
>     DP     - DEWPOINT IN FAHRENHEIT                      <
>     RH     - RELATIVE HUMIDITY IN PERCENT                <
>     WIND   - DIRECTION AND SPEED IN MPH                  <
>     PRES   - MEAN SEA LEVEL PRESSURE IN INCHES OF HG     <
>     WCI    - WIND CHILL INDEX                            <
>     VSB    - VISIBILITY IN MILES                         <
>     HX     - HEAT INDEX                                  <
>     TC     - TEMPERATURE IN CELSIUS                      <
>     VRB    - VARIABLE WIND DIRECTION                     <
>                                                          <
>>>>>>>>>>>>>>>>>>>>>>>>>>>> KEY <<<<<<<<<<<<<<<<<<<<<<<<<<<





USA.gov is the U.S. government's official web portal to all federal, state and local government web resources and services.